Location: Cahoon Acres
(40.8736°N, 111.8994°W)
Time: 10:23:59
(UTC+00:00)

SR - Pass Details

Date: 07 June 2020
Orbit: 583 x 872 km, 66.7° (Epoch: 03 July)

Event Time Altitude Azimuth Distance (km) Brightness Sun altitude
Rises 06:33:22 0° 319° (NW) 2,842 ? -25.1°
Reaches altitude 10° 06:35:50 10° 308° (NW) 1,918 ? -25.2°
Enters shadow 06:38:42 26° 269° (W) 1,152 ? -25.4°
Maximum altitude 06:39:30 28° 249° (WSW) 1,098 - -25.4°
Drops below altitude 10° 06:43:08 10° 189° (S) 1,901 - -25.5°
Sets 06:45:36 0° 178° (S) 2,812 - -25.6°
